Time,TemperatureF,DewpointF,PressureIn,WindDirection,WindDirectionDegrees,WindSpeedMPH,WindSpeedGustMPH,Humidity,HourlyPrecipIn,Conditions,Clouds,dailyrainin,SoftwareType,DateUTC
2013-04-26 00:01:00,53.1,33.9,30.15,West,263,0.0,0.0,48,0.00,,,0.00,WeatherCatV1.00B22,2013-04-26 04:01:00,
2013-04-26 00:06:00,53.0,34.9,30.15,West,263,0.0,0.0,50,0.00,,,0.00,WeatherCatV1.00B22,2013-04-26 04:06:00,
2013-04-26 00:11:00,53.0,34.4,30.15,West,263,0.0,0.0,49,0.00,,,0.00,WeatherCatV1.00B22,2013-04-26 04:11:00,
2013-04-26 00:16:00,53.0,34.4,30.15,West,263,0.0,0.0,49,0.00,,,0.00,WeatherCatV1.00B22,2013-04-26 04:16:00,
2013-04-26 00:21:00,52.9,35.3,30.15,West,263,0.0,0.0,51,0.00,,,0.00,WeatherCatV1.00B22,2013-04-26 04:21:00,
2013-04-26 00:26:00,52.8,34.2,30.15,West,263,0.0,0.0,49,0.00,,,0.00,WeatherCatV1.00B22,2013-04-26 04:26:00,
2013-04-26 00:31:00,52.6,34.5,30.15,West,263,0.0,1.0,50,0.00,,,0.00,WeatherCatV1.00B22,2013-04-26 04:31:00,
2013-04-26 00:36:00,52.6,33.5,30.15,West,263,0.0,0.0,48,0.00,,,0.00,WeatherCatV1.00B22,2013-04-26 04:36:00,
2013-04-26 00:41:00,52.6,33.5,30.15,West,263,0.0,0.0,48,0.00,,,0.00,WeatherCatV1.00B22,2013-04-26 04:41:00,
2013-04-26 00:46:00,52.6,35.0,30.14,West,263,0.0,0.0,51,0.00,,,0.00,WeatherCatV1.00B22,2013-04-26 04:46:00,
2013-04-26 00:51:00,52.5,36.8,30.14,West,263,0.0,0.0,55,0.00,,,0.00,WeatherCatV1.00B22,2013-04-26 04:51:00,
2013-04-26 00:56:00,52.5,36.8,30.14,West,263,0.0,0.0,55,0.00,,,0.00,WeatherCatV1.00B22,2013-04-26 04:56:00,
2013-04-26 01:01:00,52.4,38.5,30.14,West,263,0.0,0.0,59,0.00,,,0.00,WeatherCatV1.00B22,2013-04-26 05:01:00,
2013-04-26 01:06:00,52.3,37.5,30.15,West,263,0.0,0.0,57,0.00,,,0.00,WeatherCatV1.00B22,2013-04-26 05:06:00,
2013-04-26 01:11:00,52.1,36.9,30.15,West,263,0.0,0.0,56,0.00,,,0.00,WeatherCatV1.00B22,2013-04-26 05:11:00,
2013-04-26 01:16:00,51.9,37.2,30.15,West,263,0.0,0.0,57,0.00,,,0.00,WeatherCatV1.00B22,2013-04-26 05:16:00,
2013-04-26 01:21:00,51.7,36.5,30.15,West,263,0.0,0.0,56,0.00,,,0.00,WeatherCatV1.00B22,2013-04-26 05:21:00,
2013-04-26 01:26:00,51.5,36.3,30.15,West,263,0.0,0.0,56,0.00,,,0.00,WeatherCatV1.00B22,2013-04-26 05:26:00,
2013-04-26 01:31:00,51.3,34.8,30.15,West,263,0.0,1.0,53,0.00,,,0.00,WeatherCatV1.00B22,2013-04-26 05:31:00,
2013-04-26 01:36:00,51.2,34.7,30.15,West,263,0.0,0.0,53,0.00,,,0.00,WeatherCatV1.00B22,2013-04-26 05:36:00,
2013-04-26 01:41:00,51.1,34.6,30.15,West,263,0.0,0.0,53,0.00,,,0.00,WeatherCatV1.00B22,2013-04-26 05:41:00,
2013-04-26 01:46:00,50.9,36.7,30.15,West,263,0.0,0.0,58,0.00,,,0.00,WeatherCatV1.00B22,2013-04-26 05:46:00,
2013-04-26 01:51:00,50.6,36.4,30.15,West,263,0.0,0.0,58,0.00,,,0.00,WeatherCatV1.00B22,2013-04-26 05:51:00,
2013-04-26 01:56:00,50.3,35.7,30.15,West,263,0.0,0.0,57,0.00,,,0.00,WeatherCatV1.00B22,2013-04-26 05:56:00,
2013-04-26 02:01:00,50.0,35.4,30.14,West,263,0.0,0.0,57,0.00,,,0.00,WeatherCatV1.00B22,2013-04-26 06:01:00,
2013-04-26 02:06:00,49.6,35.4,30.14,West,263,0.0,0.0,58,0.00,,,0.00,WeatherCatV1.00B22,2013-04-26 06:06:00,
2013-04-26 02:11:00,49.4,39.3,30.14,West,263,0.0,0.0,68,0.00,,,0.00,WeatherCatV1.00B22,2013-04-26 06:11:00,
2013-04-26 02:16:00,49.2,38.7,30.14,West,263,0.0,0.0,67,0.00,,,0.00,WeatherCatV1.00B22,2013-04-26 06:16:00,
2013-04-26 02:21:00,49.0,39.3,30.14,West,263,0.0,0.0,69,0.00,,,0.00,WeatherCatV1.00B22,2013-04-26 06:21:00,
2013-04-26 02:26:00,48.8,40.2,30.14,West,263,0.0,0.0,72,0.00,,,0.00,WeatherCatV1.00B22,2013-04-26 06:26:00,
2013-04-26 02:31:00,48.8,41.2,30.14,West,263,0.0,0.0,75,0.00,,,0.00,WeatherCatV1.00B22,2013-04-26 06:31:00,
2013-04-26 02:36:00,48.7,40.8,30.14,West,263,0.0,0.0,74,0.00,,,0.00,WeatherCatV1.00B22,2013-04-26 06:36:00,
2013-04-26 02:41:00,48.6,40.3,30.14,West,263,0.0,0.0,73,0.00,,,0.00,WeatherCatV1.00B22,2013-04-26 06:41:00,
2013-04-26 02:46:00,48.5,40.6,30.14,West,263,0.0,0.0,74,0.00,,,0.00,WeatherCatV1.00B22,2013-04-26 06:46:00,
2013-04-26 02:51:00,48.3,41.1,30.14,West,263,0.0,0.0,76,0.00,,,0.00,WeatherCatV1.00B22,2013-04-26 06:51:00,
2013-04-26 02:56:00,48.2,41.3,30.13,West,263,1.0,1.0,77,0.00,,,0.00,WeatherCatV1.00B22,2013-04-26 06:56:00,
2013-04-26 03:01:00,48.0,40.8,30.13,NNW,329,0.0,1.0,76,0.00,,,0.00,WeatherCatV1.00B22,2013-04-26 07:01:00,
2013-04-26 03:06:00,47.6,39.0,30.13,NNW,329,0.0,0.0,72,0.00,,,0.00,WeatherCatV1.00B22,2013-04-26 07:06:00,
2013-04-26 03:11:00,47.3,40.5,30.13,NNW,329,0.0,0.0,77,0.00,,,0.00,WeatherCatV1.00B22,2013-04-26 07:11:00,
2013-04-26 03:16:00,47.2,40.0,30.13,NNW,329,0.0,0.0,76,0.00,,,0.00,WeatherCatV1.00B22,2013-04-26 07:16:00,
2013-04-26 03:21:00,47.0,39.8,30.13,NNW,329,0.0,0.0,76,0.00,,,0.00,WeatherCatV1.00B22,2013-04-26 07:21:00,
2013-04-26 03:26:00,46.9,39.7,30.12,NNW,329,0.0,0.0,76,0.00,,,0.00,WeatherCatV1.00B22,2013-04-26 07:26:00,
2013-04-26 03:31:00,46.7,38.9,30.12,NNW,329,0.0,0.0,74,0.00,,,0.00,WeatherCatV1.00B22,2013-04-26 07:31:00,
2013-04-26 03:36:00,46.5,38.7,30.12,NNW,329,0.0,0.0,74,0.00,,,0.00,WeatherCatV1.00B22,2013-04-26 07:36:00,
2013-04-26 03:41:00,46.2,37.7,30.13,NNW,329,0.0,0.0,72,0.00,,,0.00,WeatherCatV1.00B22,2013-04-26 07:41:00,
2013-04-26 03:46:00,46.0,36.0,30.13,NNW,329,0.0,0.0,68,0.00,,,0.00,WeatherCatV1.00B22,2013-04-26 07:46:00,
2013-04-26 03:51:00,45.8,35.5,30.13,NNW,329,0.0,0.0,67,0.00,,,0.00,WeatherCatV1.00B22,2013-04-26 07:51:00,
2013-04-26 03:56:00,45.7,35.0,30.13,NNW,329,0.0,0.0,66,0.00,,,0.00,WeatherCatV1.00B22,2013-04-26 07:56:00,
2013-04-26 04:01:00,45.7,34.6,30.13,NNW,329,0.0,0.0,65,0.00,,,0.00,WeatherCatV1.00B22,2013-04-26 08:01:00,
2013-04-26 04:06:00,45.6,34.1,30.13,NNW,329,0.0,0.0,64,0.00,,,0.00,WeatherCatV1.00B22,2013-04-26 08:06:00,
2013-04-26 04:11:00,45.6,34.1,30.14,NNW,329,0.0,0.0,64,0.00,,,0.00,WeatherCatV1.00B22,2013-04-26 08:11:00,
2013-04-26 04:16:00,45.6,34.1,30.13,NNW,329,0.0,0.0,64,0.00,,,0.00,WeatherCatV1.00B22,2013-04-26 08:16:00,
2013-04-26 04:21:00,45.4,34.7,30.14,NNW,329,0.0,0.0,66,0.00,,,0.00,WeatherCatV1.00B22,2013-04-26 08:21:00,
2013-04-26 04:26:00,45.2,33.8,30.14,NNW,329,0.0,0.0,64,0.00,,,0.00,WeatherCatV1.00B22,2013-04-26 08:26:00,
2013-04-26 04:31:00,45.1,34.0,30.14,NNW,329,0.0,0.0,65,0.00,,,0.00,WeatherCatV1.00B22,2013-04-26 08:31:00,
2013-04-26 04:36:00,45.1,35.5,30.13,NNW,329,0.0,0.0,69,0.00,,,0.00,WeatherCatV1.00B22,2013-04-26 08:36:00,
2013-04-26 04:41:00,45.1,35.9,30.14,NNW,329,0.0,0.0,70,0.00,,,0.00,WeatherCatV1.00B22,2013-04-26 08:41:00,
2013-04-26 04:46:00,45.0,36.2,30.14,NNW,329,0.0,0.0,71,0.00,,,0.00,WeatherCatV1.00B22,2013-04-26 08:46:00,
2013-04-26 04:51:00,45.0,36.5,30.14,NNW,329,0.0,0.0,72,0.00,,,0.00,WeatherCatV1.00B22,2013-04-26 08:51:00,
2013-04-26 04:56:00,45.0,36.2,30.14,NNW,329,0.0,0.0,71,0.00,,,0.00,WeatherCatV1.00B22,2013-04-26 08:56:00,
2013-04-26 05:00:00,45.1,36.3,30.14,NNW,329,0.0,0.0,71,0.00,,,0.00,WeatherCatV1.00B22,2013-04-26 09:00:00,
2013-04-26 05:05:00,45.0,36.5,30.14,NNW,329,0.0,0.0,72,0.00,,,0.00,WeatherCatV1.00B22,2013-04-26 09:05:00,
2013-04-26 05:10:00,44.9,36.4,30.15,NNW,329,0.0,0.0,72,0.00,,,0.00,WeatherCatV1.00B22,2013-04-26 09:10:00,
2013-04-26 05:15:00,44.8,36.3,30.15,NNW,329,0.0,0.0,72,0.00,,,0.00,WeatherCatV1.00B22,2013-04-26 09:15:00,
2013-04-26 05:21:00,44.7,35.9,30.15,NNW,329,0.0,0.0,71,0.00,,,0.00,WeatherCatV1.00B22,2013-04-26 09:21:00,
2013-04-26 05:26:00,44.6,35.4,30.15,NNW,329,0.0,0.0,70,0.00,,,0.00,WeatherCatV1.00B22,2013-04-26 09:26:00,
2013-04-26 05:31:00,44.5,35.3,30.15,NNW,329,0.0,0.0,70,0.00,,,0.00,WeatherCatV1.00B22,2013-04-26 09:31:00,
2013-04-26 05:36:00,44.3,35.1,30.15,NNW,329,0.0,0.0,70,0.00,,,0.00,WeatherCatV1.00B22,2013-04-26 09:36:00,
2013-04-26 05:41:00,44.2,35.0,30.16,NNW,329,0.0,0.0,70,0.00,,,0.00,WeatherCatV1.00B22,2013-04-26 09:41:00,
2013-04-26 05:46:00,44.2,35.0,30.16,NNW,329,0.0,0.0,70,0.00,,,0.00,WeatherCatV1.00B22,2013-04-26 09:46:00,
2013-04-26 05:51:00,44.1,35.0,30.16,NNW,329,0.0,0.0,70,0.00,,,0.00,WeatherCatV1.00B22,2013-04-26 09:51:00,
2013-04-26 05:56:00,44.0,34.9,30.16,NNW,329,0.0,0.0,70,0.00,,,0.00,WeatherCatV1.00B22,2013-04-26 09:56:00,
2013-04-26 06:01:00,43.9,34.8,30.16,NNW,329,0.0,0.0,70,0.00,,,0.00,WeatherCatV1.00B22,2013-04-26 10:01:00,
2013-04-26 06:06:00,43.8,34.7,30.16,NNW,329,0.0,0.0,70,0.00,,,0.00,WeatherCatV1.00B22,2013-04-26 10:06:00,
2013-04-26 06:11:00,43.8,34.7,30.16,NNW,329,0.0,0.0,70,0.00,,,0.00,WeatherCatV1.00B22,2013-04-26 10:11:00,
2013-04-26 06:16:00,43.8,34.7,30.16,NNW,329,0.0,0.0,70,0.00,,,0.00,WeatherCatV1.00B22,2013-04-26 10:16:00,
2013-04-26 06:21:00,43.8,35.4,30.16,NNW,329,0.0,0.0,72,0.00,,,0.00,WeatherCatV1.00B22,2013-04-26 10:21:00,
2013-04-26 06:26:00,43.8,36.4,30.17,NNW,329,0.0,0.0,75,0.00,,,0.00,WeatherCatV1.00B22,2013-04-26 10:26:00,
2013-04-26 06:31:00,43.8,36.4,30.17,NNW,329,0.0,0.0,75,0.00,,,0.00,WeatherCatV1.00B22,2013-04-26 10:31:00,
2013-04-26 06:36:00,43.8,36.4,30.17,NNW,329,0.0,0.0,75,0.00,,,0.00,WeatherCatV1.00B22,2013-04-26 10:36:00,
2013-04-26 06:41:00,43.8,36.1,30.17,NNW,329,0.0,1.0,74,0.00,,,0.00,WeatherCatV1.00B22,2013-04-26 10:41:00,
2013-04-26 06:46:00,43.8,36.1,30.18,NNW,329,0.0,0.0,74,0.00,,,0.00,WeatherCatV1.00B22,2013-04-26 10:46:00,
2013-04-26 06:51:00,43.8,36.4,30.18,NNW,329,0.0,0.0,75,0.00,,,0.00,WeatherCatV1.00B22,2013-04-26 10:51:00,
2013-04-26 06:56:00,43.8,36.7,30.18,NNW,330,0.0,0.0,76,0.00,,,0.00,WeatherCatV1.00B22,2013-04-26 10:56:00,
2013-04-26 07:01:00,43.8,36.7,30.18,NNW,330,0.0,0.0,76,0.00,,,0.00,WeatherCatV1.00B22,2013-04-26 11:01:00,
2013-04-26 07:06:00,43.7,36.6,30.19,NNW,330,0.0,0.0,76,0.00,,,0.00,WeatherCatV1.00B22,2013-04-26 11:06:00,
2013-04-26 07:11:00,43.8,37.4,30.19,NNW,330,0.0,0.0,78,0.00,,,0.00,WeatherCatV1.00B22,2013-04-26 11:11:00,
2013-04-26 07:13:00,43.8,37.4,30.19,NNW,330,0.0,0.0,78,0.00,,,0.00,WeatherCatV1.00B22,2013-04-26 11:13:00,
2013-04-26 07:18:00,43.9,38.1,30.19,NNW,330,0.0,1.0,80,0.00,,,0.00,WeatherCatV1.00B22,2013-04-26 11:18:00,
2013-04-26 07:23:00,44.0,38.9,30.20,NNW,330,0.0,0.0,82,0.00,,,0.00,WeatherCatV1.00B22,2013-04-26 11:23:00,
2013-04-26 07:28:00,44.1,39.9,30.20,NNW,330,0.0,0.0,85,0.00,,,0.00,WeatherCatV1.00B22,2013-04-26 11:28:00,
2013-04-26 07:33:00,44.3,40.4,30.20,NNW,330,0.0,0.0,86,0.00,,,0.00,WeatherCatV1.00B22,2013-04-26 11:33:00,
2013-04-26 07:38:00,44.7,41.1,30.20,North,5,0.0,2.0,87,0.00,,,0.00,WeatherCatV1.00B22,2013-04-26 11:38:00,
2013-04-26 07:43:00,45.0,41.1,30.20,North,5,0.0,1.0,86,0.00,,,0.00,WeatherCatV1.00B22,2013-04-26 11:43:00,
2013-04-26 07:48:00,45.1,41.2,30.21,North,5,0.0,0.0,86,0.00,,,0.00,WeatherCatV1.00B22,2013-04-26 11:48:00,
2013-04-26 07:53:00,45.4,41.5,30.21,North,5,0.0,0.0,86,0.00,,,0.00,WeatherCatV1.00B22,2013-04-26 11:53:00,
2013-04-26 07:58:00,45.8,41.9,30.22,North,5,1.0,2.0,86,0.00,,,0.00,WeatherCatV1.00B22,2013-04-26 11:58:00,
2013-04-26 08:03:00,46.1,41.8,30.22,NNE,22,1.0,2.0,85,0.00,,,0.00,WeatherCatV1.00B22,2013-04-26 12:03:00,
2013-04-26 08:08:00,46.4,42.4,30.22,NNE,29,3.0,4.0,86,0.00,,,0.00,WeatherCatV1.00B22,2013-04-26 12:08:00,
2013-04-26 08:13:00,46.9,43.2,30.22,NNE,29,1.0,2.0,87,0.00,,,0.00,WeatherCatV1.00B22,2013-04-26 12:13:00,
2013-04-26 08:18:00,47.3,42.7,30.22,NE,35,2.0,3.0,84,0.00,,,0.00,WeatherCatV1.00B22,2013-04-26 12:18:00,
2013-04-26 08:23:00,47.7,42.5,30.22,NE,36,2.0,2.0,82,0.00,,,0.00,WeatherCatV1.00B22,2013-04-26 12:23:00,
2013-04-26 08:28:00,48.2,41.3,30.23,NE,35,2.0,3.0,77,0.00,,,0.00,WeatherCatV1.00B22,2013-04-26 12:28:00,
2013-04-26 08:33:00,48.7,39.7,30.23,NE,40,1.0,4.0,71,0.00,,,0.00,WeatherCatV1.00B22,2013-04-26 12:33:00,
2013-04-26 08:38:00,49.3,39.6,30.24,NE,53,3.0,4.0,69,0.00,,,0.00,WeatherCatV1.00B22,2013-04-26 12:38:00,
2013-04-26 08:43:00,49.8,39.3,30.24,NE,35,4.0,4.0,67,0.00,,,0.00,WeatherCatV1.00B22,2013-04-26 12:43:00,
2013-04-26 08:48:00,50.4,39.5,30.24,NE,53,4.0,6.0,66,0.00,,,0.00,WeatherCatV1.00B22,2013-04-26 12:48:00,
2013-04-26 08:53:00,50.7,39.8,30.24,NE,50,3.0,5.0,66,0.00,,,0.00,WeatherCatV1.00B22,2013-04-26 12:53:00,
2013-04-26 08:58:00,51.0,39.3,30.24,NE,42,4.0,5.0,64,0.00,,,0.00,WeatherCatV1.00B22,2013-04-26 12:58:00,
2013-04-26 09:03:00,51.3,39.9,30.24,NE,38,4.0,5.0,65,0.00,,,0.00,WeatherCatV1.00B22,2013-04-26 13:03:00,
2013-04-26 09:08:00,51.6,40.6,30.23,NE,34,4.0,4.0,66,0.00,,,0.00,WeatherCatV1.00B22,2013-04-26 13:08:00,
2013-04-26 09:13:00,52.1,40.3,30.23,NE,42,3.0,4.0,64,0.00,,,0.00,WeatherCatV1.00B22,2013-04-26 13:13:00,
2013-04-26 09:18:00,52.7,40.5,30.23,NE,52,3.0,3.0,63,0.00,,,0.00,WeatherCatV1.00B22,2013-04-26 13:18:00,
2013-04-26 09:23:00,53.6,40.1,30.23,ESE,115,3.0,3.0,60,0.00,,,0.00,WeatherCatV1.00B22,2013-04-26 13:23:00,
2013-04-26 09:28:00,54.5,39.6,30.23,ENE,58,2.0,5.0,57,0.00,,,0.00,WeatherCatV1.00B22,2013-04-26 13:28:00,
2013-04-26 09:33:00,55.4,39.5,30.22,ENE,69,3.0,5.0,55,0.00,,,0.00,WeatherCatV1.00B22,2013-04-26 13:33:00,
2013-04-26 09:38:00,56.0,39.6,30.23,NE,39,6.0,6.0,54,0.00,,,0.00,WeatherCatV1.00B22,2013-04-26 13:38:00,
2013-04-26 09:43:00,56.4,40.4,30.22,East,85,2.0,3.0,55,0.00,,,0.00,WeatherCatV1.00B22,2013-04-26 13:43:00,
2013-04-26 09:48:00,57.0,41.5,30.22,NE,46,3.0,5.0,56,0.00,,,0.00,WeatherCatV1.00B22,2013-04-26 13:48:00,
2013-04-26 09:53:00,57.7,39.2,30.22,ESE,113,5.0,7.0,50,0.00,,,0.00,WeatherCatV1.00B22,2013-04-26 13:53:00,
2013-04-26 09:58:00,58.3,37.6,30.22,East,84,5.0,11.0,46,0.00,,,0.00,WeatherCatV1.00B22,2013-04-26 13:58:00,
2013-04-26 10:03:00,58.7,38.0,30.22,NE,41,7.0,10.0,46,0.00,,,0.00,WeatherCatV1.00B22,2013-04-26 14:03:00,
2013-04-26 10:08:00,59.1,38.3,30.22,NE,42,7.0,10.0,46,0.00,,,0.00,WeatherCatV1.00B22,2013-04-26 14:08:00,
2013-04-26 10:13:00,59.4,40.8,30.22,ESE,103,4.0,6.0,50,0.00,,,0.00,WeatherCatV1.00B22,2013-04-26 14:13:00,
2013-04-26 10:18:00,59.7,38.3,30.22,NE,34,7.0,11.0,45,0.00,,,0.00,WeatherCatV1.00B22,2013-04-26 14:18:00,
2013-04-26 10:23:00,59.9,37.9,30.22,East,79,5.0,8.0,44,0.00,,,0.00,WeatherCatV1.00B22,2013-04-26 14:23:00,
2013-04-26 10:28:00,60.1,39.2,30.23,ESE,106,7.0,7.0,46,0.00,,,0.00,WeatherCatV1.00B22,2013-04-26 14:28:00,
2013-04-26 10:33:00,60.2,38.2,30.23,ESE,114,5.0,7.0,44,0.00,,,0.00,WeatherCatV1.00B22,2013-04-26 14:33:00,
2013-04-26 10:38:00,60.4,40.1,30.23,ESE,113,4.0,7.0,47,0.00,,,0.00,WeatherCatV1.00B22,2013-04-26 14:38:00,
2013-04-26 10:43:00,60.7,39.2,30.23,ESE,116,4.0,7.0,45,0.00,,,0.00,WeatherCatV1.00B22,2013-04-26 14:43:00,
2013-04-26 10:48:00,61.0,39.5,30.23,ESE,109,4.0,5.0,45,0.00,,,0.00,WeatherCatV1.00B22,2013-04-26 14:48:00,
2013-04-26 10:53:00,61.4,40.4,30.24,NNE,26,11.0,11.0,46,0.00,,,0.00,WeatherCatV1.00B22,2013-04-26 14:53:00,
2013-04-26 10:58:00,61.5,38.2,30.25,ESE,117,4.0,7.0,42,0.00,,,0.00,WeatherCatV1.00B22,2013-04-26 14:58:00,
2013-04-26 11:03:00,61.6,40.0,30.25,ESE,121,4.0,5.0,45,0.00,,,0.00,WeatherCatV1.00B22,2013-04-26 15:03:00,
2013-04-26 11:08:00,61.8,39.1,30.25,ESE,113,5.0,6.0,43,0.00,,,0.00,WeatherCatV1.00B22,2013-04-26 15:08:00,
2013-04-26 11:13:00,61.9,40.3,30.25,ESE,122,4.0,6.0,45,0.00,,,0.00,WeatherCatV1.00B22,2013-04-26 15:13:00,
2013-04-26 11:18:00,62.3,40.7,30.25,ESE,119,5.0,5.0,45,0.00,,,0.00,WeatherCatV1.00B22,2013-04-26 15:18:00,
2013-04-26 11:23:00,62.6,40.4,30.24,NE,53,5.0,5.0,44,0.00,,,0.00,WeatherCatV1.00B22,2013-04-26 15:23:00,
2013-04-26 11:28:00,62.8,39.4,30.25,ENE,73,3.0,5.0,42,0.00,,,0.00,WeatherCatV1.00B22,2013-04-26 15:28:00,
2013-04-26 11:33:00,63.0,40.1,30.25,East,86,5.0,7.0,43,0.00,,,0.00,WeatherCatV1.00B22,2013-04-26 15:33:00,
2013-04-26 11:38:00,63.1,41.4,30.26,ESE,119,5.0,7.0,45,0.00,,,0.00,WeatherCatV1.00B22,2013-04-26 15:38:00,
2013-04-26 11:43:00,63.2,39.1,30.26,ESE,120,4.0,5.0,41,0.00,,,0.00,WeatherCatV1.00B22,2013-04-26 15:43:00,
2013-04-26 11:48:00,63.4,40.5,30.25,SE,124,4.0,6.0,43,0.00,,,0.00,WeatherCatV1.00B22,2013-04-26 15:48:00,
2013-04-26 11:53:00,63.7,41.4,30.25,East,98,6.0,7.0,44,0.00,,,0.00,WeatherCatV1.00B22,2013-04-26 15:53:00,
2013-04-26 11:58:00,63.7,42.5,30.25,East,90,5.0,6.0,46,0.00,,,0.00,WeatherCatV1.00B22,2013-04-26 15:58:00,
2013-04-26 12:03:00,63.6,42.4,30.25,ENE,71,5.0,5.0,46,0.00,,,0.00,WeatherCatV1.00B22,2013-04-26 16:03:00,
2013-04-26 12:08:00,63.8,40.3,30.25,ENE,68,2.0,5.0,42,0.00,,,0.00,WeatherCatV1.00B22,2013-04-26 16:08:00,
2013-04-26 12:13:00,64.1,43.5,30.25,ESE,102,2.0,3.0,47,0.00,,,0.00,WeatherCatV1.00B22,2013-04-26 16:13:00,
2013-04-26 12:18:00,64.7,42.9,30.25,ENE,74,5.0,7.0,45,0.00,,,0.00,WeatherCatV1.00B22,2013-04-26 16:18:00,
2013-04-26 12:23:00,64.7,41.7,30.25,East,88,5.0,6.0,43,0.00,,,0.00,WeatherCatV1.00B22,2013-04-26 16:23:00,
2013-04-26 12:28:00,64.7,39.8,30.25,ENE,60,5.0,7.0,40,0.00,,,0.00,WeatherCatV1.00B22,2013-04-26 16:28:00,
2013-04-26 12:33:00,64.7,41.1,30.25,East,96,3.0,6.0,42,0.00,,,0.00,WeatherCatV1.00B22,2013-04-26 16:33:00,
2013-04-26 12:38:00,65.0,41.3,30.25,NE,37,6.0,6.0,42,0.00,,,0.00,WeatherCatV1.00B22,2013-04-26 16:38:00,
2013-04-26 12:43:00,65.2,40.3,30.25,East,82,3.0,12.0,40,0.00,,,0.00,WeatherCatV1.00B22,2013-04-26 16:43:00,
2013-04-26 12:48:00,65.4,41.7,30.24,East,87,3.0,5.0,42,0.00,,,0.00,WeatherCatV1.00B22,2013-04-26 16:48:00,
2013-04-26 12:53:00,65.5,43.6,30.24,NE,46,4.0,5.0,45,0.00,,,0.00,WeatherCatV1.00B22,2013-04-26 16:53:00,
2013-04-26 12:58:00,65.8,42.1,30.24,East,86,3.0,5.0,42,0.00,,,0.00,WeatherCatV1.00B22,2013-04-26 16:58:00,
2013-04-26 13:03:00,66.0,42.2,30.23,ENE,74,3.0,5.0,42,0.00,,,0.00,WeatherCatV1.00B22,2013-04-26 17:03:00,
2013-04-26 13:08:00,66.2,44.8,30.23,SE,127,3.0,7.0,46,0.00,,,0.00,WeatherCatV1.00B22,2013-04-26 17:08:00,
2013-04-26 13:13:00,66.4,42.6,30.24,ESE,117,3.0,5.0,42,0.00,,,0.00,WeatherCatV1.00B22,2013-04-26 17:13:00,
2013-04-26 13:18:00,66.5,42.7,30.24,ESE,119,2.0,5.0,42,0.00,,,0.00,WeatherCatV1.00B22,2013-04-26 17:18:00,
2013-04-26 13:23:00,66.5,41.4,30.24,ESE,103,4.0,4.0,40,0.00,,,0.00,WeatherCatV1.00B22,2013-04-26 17:23:00,
2013-04-26 13:28:00,66.7,41.6,30.23,ESE,109,3.0,4.0,40,0.00,,,0.00,WeatherCatV1.00B22,2013-04-26 17:28:00,
2013-04-26 13:33:00,66.7,43.5,30.23,ESE,113,3.0,3.0,43,0.00,,,0.00,WeatherCatV1.00B22,2013-04-26 17:33:00,
2013-04-26 13:38:00,66.9,41.8,30.23,ESE,121,2.0,3.0,40,0.00,,,0.00,WeatherCatV1.00B22,2013-04-26 17:38:00,
2013-04-26 13:43:00,67.3,42.8,30.23,NE,51,3.0,5.0,41,0.00,,,0.00,WeatherCatV1.00B22,2013-04-26 17:43:00,
2013-04-26 13:48:00,67.4,42.9,30.23,ENE,70,3.0,3.0,41,0.00,,,0.00,WeatherCatV1.00B22,2013-04-26 17:48:00,
2013-04-26 13:53:00,67.7,44.4,30.23,East,80,3.0,3.0,43,0.00,,,0.00,WeatherCatV1.00B22,2013-04-26 17:53:00,
2013-04-26 13:58:00,67.8,42.6,30.22,SE,124,2.0,4.0,40,0.00,,,0.00,WeatherCatV1.00B22,2013-04-26 17:58:00,
2013-04-26 14:03:00,67.9,42.7,30.22,ENE,73,4.0,7.0,40,0.00,,,0.00,WeatherCatV1.00B22,2013-04-26 18:03:00,
2013-04-26 14:08:00,68.0,44.7,30.22,ENE,75,2.0,3.0,43,0.00,,,0.00,WeatherCatV1.00B22,2013-04-26 18:08:00,
2013-04-26 14:13:00,68.1,42.2,30.22,ESE,102,2.0,2.0,39,0.00,,,0.00,WeatherCatV1.00B22,2013-04-26 18:13:00,
2013-04-26 14:18:00,68.3,41.0,30.22,ESE,112,3.0,4.0,37,0.00,,,0.00,WeatherCatV1.00B22,2013-04-26 18:18:00,
2013-04-26 14:23:00,68.5,42.6,30.22,East,89,3.0,3.0,39,0.00,,,0.00,WeatherCatV1.00B22,2013-04-26 18:23:00,
2013-04-26 14:28:00,68.5,44.5,30.22,ESE,120,2.0,5.0,42,0.00,,,0.00,WeatherCatV1.00B22,2013-04-26 18:28:00,
2013-04-26 14:33:00,68.4,42.5,30.21,East,86,2.0,3.0,39,0.00,,,0.00,WeatherCatV1.00B22,2013-04-26 18:33:00,
2013-04-26 14:38:00,68.7,44.0,30.21,NE,44,4.0,4.0,41,0.00,,,0.00,WeatherCatV1.00B22,2013-04-26 18:38:00,
2013-04-26 14:43:00,68.7,42.1,30.21,East,99,2.0,3.0,38,0.00,,,0.00,WeatherCatV1.00B22,2013-04-26 18:43:00,
2013-04-26 14:48:00,68.6,42.6,30.20,ESE,106,1.0,3.0,39,0.00,,,0.00,WeatherCatV1.00B22,2013-04-26 18:48:00,
2013-04-26 14:53:00,68.8,44.1,30.20,NE,53,3.0,4.0,41,0.00,,,0.00,WeatherCatV1.00B22,2013-04-26 18:53:00,
2013-04-26 14:58:00,69.1,43.1,30.20,ENE,78,1.0,5.0,39,0.00,,,0.00,WeatherCatV1.00B22,2013-04-26 18:58:00,
2013-04-26 15:03:00,69.1,43.8,30.20,East,95,2.0,3.0,40,0.00,,,0.00,WeatherCatV1.00B22,2013-04-26 19:03:00,
2013-04-26 15:08:00,69.1,43.1,30.19,ENE,62,1.0,5.0,39,0.00,,,0.00,WeatherCatV1.00B22,2013-04-26 19:08:00,
2013-04-26 15:13:00,69.1,42.4,30.19,East,86,2.0,3.0,38,0.00,,,0.00,WeatherCatV1.00B22,2013-04-26 19:13:00,
2013-04-26 15:18:00,69.2,44.5,30.19,NE,38,4.0,5.0,41,0.00,,,0.00,WeatherCatV1.00B22,2013-04-26 19:18:00,
2013-04-26 15:23:00,69.2,43.8,30.18,NE,44,3.0,4.0,40,0.00,,,0.00,WeatherCatV1.00B22,2013-04-26 19:23:00,
2013-04-26 15:28:00,69.4,44.7,30.19,ENE,57,1.0,2.0,41,0.00,,,0.00,WeatherCatV1.00B22,2013-04-26 19:28:00,
2013-04-26 15:33:00,69.5,46.0,30.18,East,84,1.0,2.0,43,0.00,,,0.00,WeatherCatV1.00B22,2013-04-26 19:33:00,
2013-04-26 15:38:00,69.9,45.8,30.18,East,83,0.0,2.0,42,0.00,,,0.00,WeatherCatV1.00B22,2013-04-26 19:38:00,
2013-04-26 15:43:00,70.2,44.1,30.18,ESE,111,1.0,1.0,39,0.00,,,0.00,WeatherCatV1.00B22,2013-04-26 19:43:00,
2013-04-26 15:48:00,70.2,44.1,30.17,NE,51,5.0,10.0,39,0.00,,,0.00,WeatherCatV1.00B22,2013-04-26 19:48:00,
2013-04-26 15:53:00,69.9,44.5,30.17,NE,47,3.0,6.0,40,0.00,,,0.00,WeatherCatV1.00B22,2013-04-26 19:53:00,
2013-04-26 15:58:00,69.7,43.6,30.17,East,101,2.0,3.0,39,0.00,,,0.00,WeatherCatV1.00B22,2013-04-26 19:58:00,
2013-04-26 16:03:00,69.8,44.4,30.17,NE,44,3.0,4.0,40,0.00,,,0.00,WeatherCatV1.00B22,2013-04-26 20:03:00,
2013-04-26 16:08:00,69.8,41.6,30.17,ESE,109,1.0,1.0,36,0.00,,,0.00,WeatherCatV1.00B22,2013-04-26 20:08:00,
2013-04-26 16:13:00,70.0,42.5,30.16,ENE,71,2.0,2.0,37,0.00,,,0.00,WeatherCatV1.00B22,2013-04-26 20:13:00,
2013-04-26 16:18:00,70.1,45.9,30.16,NE,56,1.0,3.0,42,0.00,,,0.00,WeatherCatV1.00B22,2013-04-26 20:18:00,
2013-04-26 16:23:00,70.1,45.9,30.16,ENE,58,2.0,2.0,42,0.00,,,0.00,WeatherCatV1.00B22,2013-04-26 20:23:00,
2013-04-26 16:28:00,70.1,42.6,30.16,NNE,32,3.0,4.0,37,0.00,,,0.00,WeatherCatV1.00B22,2013-04-26 20:28:00,
2013-04-26 16:33:00,70.1,44.0,30.16,ENE,66,1.0,3.0,39,0.00,,,0.00,WeatherCatV1.00B22,2013-04-26 20:33:00,
2013-04-26 16:38:00,70.1,45.3,30.16,ENE,68,0.0,3.0,41,0.00,,,0.00,WeatherCatV1.00B22,2013-04-26 20:38:00,
2013-04-26 16:43:00,70.2,42.7,30.16,East,82,1.0,1.0,37,0.00,,,0.00,WeatherCatV1.00B22,2013-04-26 20:43:00,
2013-04-26 16:48:00,70.3,42.1,30.16,East,82,1.0,1.0,36,0.00,,,0.00,WeatherCatV1.00B22,2013-04-26 20:48:00,
2013-04-26 16:53:00,70.5,44.3,30.15,East,82,1.0,2.0,39,0.00,,,0.00,WeatherCatV1.00B22,2013-04-26 20:53:00,
2013-04-26 16:58:00,70.6,45.7,30.16,ENE,67,2.0,3.0,41,0.00,,,0.00,WeatherCatV1.00B22,2013-04-26 20:58:00,
2013-04-26 17:03:00,70.4,44.9,30.15,ENE,76,1.0,2.0,40,0.00,,,0.00,WeatherCatV1.00B22,2013-04-26 21:03:00,
2013-04-26 17:08:00,70.2,46.6,30.15,ENE,69,2.0,3.0,43,0.00,,,0.00,WeatherCatV1.00B22,2013-04-26 21:08:00,
2013-04-26 17:13:00,70.0,43.2,30.15,ENE,69,0.0,2.0,38,0.00,,,0.00,WeatherCatV1.00B22,2013-04-26 21:13:00,
2013-04-26 17:18:00,70.1,44.0,30.15,SE,131,0.0,1.0,39,0.00,,,0.00,WeatherCatV1.00B22,2013-04-26 21:18:00,
2013-04-26 17:23:00,70.2,43.4,30.15,East,82,0.0,3.0,38,0.00,,,0.00,WeatherCatV1.00B22,2013-04-26 21:23:00,
2013-04-26 17:28:00,70.2,42.7,30.15,East,85,1.0,3.0,37,0.00,,,0.00,WeatherCatV1.00B22,2013-04-26 21:28:00,
2013-04-26 17:33:00,70.2,43.4,30.15,East,85,1.0,1.0,38,0.00,,,0.00,WeatherCatV1.00B22,2013-04-26 21:33:00,
2013-04-26 17:38:00,70.1,45.3,30.15,East,85,1.0,1.0,41,0.00,,,0.00,WeatherCatV1.00B22,2013-04-26 21:38:00,
2013-04-26 17:43:00,70.0,43.2,30.15,ENE,59,3.0,3.0,38,0.00,,,0.00,WeatherCatV1.00B22,2013-04-26 21:43:00,
2013-04-26 17:48:00,69.9,43.1,30.15,ESE,113,2.0,3.0,38,0.00,,,0.00,WeatherCatV1.00B22,2013-04-26 21:48:00,
2013-04-26 17:53:00,69.8,43.0,30.15,ESE,113,2.0,2.0,38,0.00,,,0.00,WeatherCatV1.00B22,2013-04-26 21:53:00,
2013-04-26 17:58:00,69.7,42.9,30.15,ESE,121,1.0,3.0,38,0.00,,,0.00,WeatherCatV1.00B22,2013-04-26 21:58:00,
2013-04-26 18:03:00,69.7,44.3,30.14,ESE,121,1.0,3.0,40,0.00,,,0.00,WeatherCatV1.00B22,2013-04-26 22:03:00,
2013-04-26 18:08:00,69.7,46.2,30.14,ESE,103,1.0,3.0,43,0.00,,,0.00,WeatherCatV1.00B22,2013-04-26 22:08:00,
2013-04-26 18:13:00,69.5,42.8,30.15,ESE,102,0.0,0.0,38,0.00,,,0.00,WeatherCatV1.00B22,2013-04-26 22:13:00,
2013-04-26 18:18:00,69.5,42.8,30.14,ESE,119,0.0,0.0,38,0.00,,,0.00,WeatherCatV1.00B22,2013-04-26 22:18:00,
2013-04-26 18:23:00,69.5,43.4,30.14,ESE,119,0.0,0.0,39,0.00,,,0.00,WeatherCatV1.00B22,2013-04-26 22:23:00,
2013-04-26 18:28:00,69.5,45.4,30.14,ENE,71,1.0,2.0,42,0.00,,,0.00,WeatherCatV1.00B22,2013-04-26 22:28:00,
2013-04-26 18:33:00,69.4,45.9,30.15,ESE,115,0.0,0.0,43,0.00,,,0.00,WeatherCatV1.00B22,2013-04-26 22:33:00,
2013-04-26 18:38:00,69.3,46.4,30.15,ESE,115,1.0,1.0,44,0.00,,,0.00,WeatherCatV1.00B22,2013-04-26 22:38:00,
2013-04-26 18:43:00,69.2,46.3,30.16,ESE,115,1.0,2.0,44,0.00,,,0.00,WeatherCatV1.00B22,2013-04-26 22:43:00,
2013-04-26 18:48:00,69.2,48.1,30.16,ESE,115,0.0,0.0,47,0.00,,,0.00,WeatherCatV1.00B22,2013-04-26 22:48:00,
2013-04-26 18:53:00,69.1,48.0,30.16,ESE,115,0.0,0.0,47,0.00,,,0.00,WeatherCatV1.00B22,2013-04-26 22:53:00,
2013-04-26 18:58:00,69.0,46.8,30.16,ESE,115,0.0,1.0,45,0.00,,,0.00,WeatherCatV1.00B22,2013-04-26 22:58:00,
2013-04-26 19:03:00,69.0,46.8,30.16,ENE,70,1.0,1.0,45,0.00,,,0.00,WeatherCatV1.00B22,2013-04-26 23:03:00,
2013-04-26 19:08:00,69.0,46.8,30.16,ENE,57,0.0,2.0,45,0.00,,,0.00,WeatherCatV1.00B22,2013-04-26 23:08:00,
2013-04-26 19:13:00,68.9,48.9,30.16,ENE,57,1.0,2.0,49,0.00,,,0.00,WeatherCatV1.00B22,2013-04-26 23:13:00,
2013-04-26 19:18:00,68.8,49.4,30.17,ENE,57,0.0,1.0,50,0.00,,,0.00,WeatherCatV1.00B22,2013-04-26 23:18:00,
2013-04-26 19:23:00,68.6,47.6,30.17,ENE,57,0.0,0.0,47,0.00,,,0.00,WeatherCatV1.00B22,2013-04-26 23:23:00,
2013-04-26 19:28:00,68.4,47.4,30.17,ENE,57,0.0,0.0,47,0.00,,,0.00,WeatherCatV1.00B22,2013-04-26 23:28:00,
2013-04-26 19:33:00,68.2,46.6,30.17,ENE,57,0.0,0.0,46,0.00,,,0.00,WeatherCatV1.00B22,2013-04-26 23:33:00,
2013-04-26 19:38:00,68.0,45.3,30.17,ENE,57,0.0,0.0,44,0.00,,,0.00,WeatherCatV1.00B22,2013-04-26 23:38:00,
2013-04-26 19:43:00,67.8,45.7,30.17,ENE,57,0.0,0.0,45,0.00,,,0.00,WeatherCatV1.00B22,2013-04-26 23:43:00,
2013-04-26 19:48:00,67.6,45.5,30.18,ENE,57,0.0,0.0,45,0.00,,,0.00,WeatherCatV1.00B22,2013-04-26 23:48:00,
2013-04-26 19:50:00,67.6,45.5,30.18,ENE,57,0.0,0.0,45,0.00,,,0.00,WeatherCatV1.00B22,2013-04-26 23:50:00,
2013-04-26 20:05:00,66.9,45.4,30.19,ENE,57,0.0,0.0,46,0.00,,,0.00,WeatherCatV1.00B22,2013-04-27 00:05:00,
2013-04-26 20:10:00,66.8,44.8,30.19,ENE,57,0.0,0.0,45,0.00,,,0.00,WeatherCatV1.00B22,2013-04-27 00:10:00,
2013-04-26 20:15:00,66.7,46.4,30.18,ENE,57,1.0,1.0,48,0.00,,,0.00,WeatherCatV1.00B22,2013-04-27 00:15:00,
2013-04-26 20:20:00,66.5,46.2,30.18,ENE,57,0.0,0.0,48,0.00,,,0.00,WeatherCatV1.00B22,2013-04-27 00:20:00,
2013-04-26 20:25:00,66.3,48.1,30.18,ENE,57,0.0,1.0,52,0.00,,,0.00,WeatherCatV1.00B22,2013-04-27 00:25:00,
2013-04-26 20:30:00,66.1,49.0,30.18,ENE,57,0.0,1.0,54,0.00,,,0.00,WeatherCatV1.00B22,2013-04-27 00:30:00,
2013-04-26 20:35:00,65.8,48.2,30.18,ENE,57,0.0,0.0,53,0.00,,,0.00,WeatherCatV1.00B22,2013-04-27 00:35:00,
2013-04-26 20:40:00,65.6,47.5,30.17,ENE,57,0.0,1.0,52,0.00,,,0.00,WeatherCatV1.00B22,2013-04-27 00:40:00,
2013-04-26 20:45:00,65.4,46.8,30.17,ENE,57,0.0,0.0,51,0.00,,,0.00,WeatherCatV1.00B22,2013-04-27 00:45:00,
2013-04-26 20:50:00,65.2,47.1,30.17,ENE,57,0.0,0.0,52,0.00,,,0.00,WeatherCatV1.00B22,2013-04-27 00:50:00,
2013-04-26 20:55:00,65.0,49.9,30.17,ENE,57,2.0,3.0,58,0.00,,,0.00,WeatherCatV1.00B22,2013-04-27 00:55:00,
2013-04-26 21:00:00,64.7,51.8,30.16,NE,49,1.0,3.0,63,0.00,,,0.00,WeatherCatV1.00B22,2013-04-27 01:00:00,
2013-04-26 21:05:00,64.5,50.7,30.16,NE,43,3.0,4.0,61,0.00,,,0.00,WeatherCatV1.00B22,2013-04-27 01:05:00,
2013-04-26 21:10:00,64.3,50.1,30.15,NE,44,3.0,4.0,60,0.00,,,0.00,WeatherCatV1.00B22,2013-04-27 01:10:00,
2013-04-26 21:15:00,64.2,51.8,30.15,NE,46,2.0,2.0,64,0.00,,,0.00,WeatherCatV1.00B22,2013-04-27 01:15:00,
2013-04-26 21:20:00,64.0,51.6,30.14,NE,49,4.0,4.0,64,0.00,,,0.00,WeatherCatV1.00B22,2013-04-27 01:20:00,
2013-04-26 21:25:00,63.8,51.4,30.12,NE,55,3.0,4.0,64,0.00,,,0.00,WeatherCatV1.00B22,2013-04-27 01:25:00,
2013-04-26 21:30:00,63.7,50.0,30.13,ENE,65,2.0,2.0,61,0.00,,,0.00,WeatherCatV1.00B22,2013-04-27 01:30:00,
2013-04-26 21:35:00,63.7,48.6,30.12,East,80,2.0,3.0,58,0.00,,,0.00,WeatherCatV1.00B22,2013-04-27 01:35:00,
2013-04-26 21:40:00,63.8,49.6,30.13,East,80,1.0,2.0,60,0.00,,,0.00,WeatherCatV1.00B22,2013-04-27 01:40:00,
2013-04-26 21:45:00,63.8,49.2,30.13,East,80,2.0,2.0,59,0.00,,,0.00,WeatherCatV1.00B22,2013-04-27 01:45:00,
2013-04-26 21:50:00,63.9,48.4,30.13,ENE,78,2.0,2.0,57,0.00,,,0.00,WeatherCatV1.00B22,2013-04-27 01:50:00,
2013-04-26 21:55:00,64.0,48.0,30.13,NE,51,2.0,3.0,56,0.00,,,0.00,WeatherCatV1.00B22,2013-04-27 01:55:00,
2013-04-26 22:00:00,64.1,47.6,30.13,ENE,59,2.0,2.0,55,0.00,,,0.00,WeatherCatV1.00B22,2013-04-27 02:00:00,
2013-04-26 22:05:00,64.2,48.2,30.14,ENE,59,2.0,3.0,56,0.00,,,0.00,WeatherCatV1.00B22,2013-04-27 02:05:00,
2013-04-26 22:10:00,64.2,48.6,30.14,ENE,59,1.0,3.0,57,0.00,,,0.00,WeatherCatV1.00B22,2013-04-27 02:10:00,
2013-04-26 22:15:00,64.2,46.7,30.14,ENE,63,1.0,2.0,53,0.00,,,0.00,WeatherCatV1.00B22,2013-04-27 02:15:00,
2013-04-26 22:20:00,64.2,47.7,30.14,ENE,64,2.0,2.0,55,0.00,,,0.00,WeatherCatV1.00B22,2013-04-27 02:20:00,
2013-04-26 22:25:00,64.2,47.2,30.14,ENE,64,1.0,1.0,54,0.00,,,0.00,WeatherCatV1.00B22,2013-04-27 02:25:00,
2013-04-26 22:30:00,64.1,46.6,30.14,ENE,64,1.0,2.0,53,0.00,,,0.00,WeatherCatV1.00B22,2013-04-27 02:30:00,
2013-04-26 22:35:00,64.1,48.1,30.15,ENE,64,1.0,2.0,56,0.00,,,0.00,WeatherCatV1.00B22,2013-04-27 02:35:00,
2013-04-26 22:40:00,64.0,47.0,30.14,ENE,61,2.0,2.0,54,0.00,,,0.00,WeatherCatV1.00B22,2013-04-27 02:40:00,
2013-04-26 22:45:00,63.9,46.4,30.15,NE,53,3.0,4.0,53,0.00,,,0.00,WeatherCatV1.00B22,2013-04-27 02:45:00,
2013-04-26 22:50:00,63.9,48.8,30.16,NE,53,2.0,2.0,58,0.00,,,0.00,WeatherCatV1.00B22,2013-04-27 02:50:00,
2013-04-26 22:55:00,63.6,49.5,30.17,NE,53,0.0,0.0,60,0.00,,,0.00,WeatherCatV1.00B22,2013-04-27 02:55:00,
2013-04-26 23:00:00,63.3,47.3,30.18,NE,53,0.0,1.0,56,0.00,,,0.00,WeatherCatV1.00B22,2013-04-27 03:00:00,
2013-04-26 23:05:00,63.0,47.5,30.19,NE,53,0.0,0.0,57,0.00,,,0.00,WeatherCatV1.00B22,2013-04-27 03:05:00,
2013-04-26 23:10:00,62.9,47.4,30.19,NE,53,0.0,0.0,57,0.00,,,0.00,WeatherCatV1.00B22,2013-04-27 03:10:00,
2013-04-26 23:15:00,62.8,46.4,30.19,NE,53,0.0,0.0,55,0.00,,,0.00,WeatherCatV1.00B22,2013-04-27 03:15:00,
2013-04-26 23:20:00,62.7,47.7,30.18,NE,53,0.0,0.0,58,0.00,,,0.00,WeatherCatV1.00B22,2013-04-27 03:20:00,
2013-04-26 23:25:00,62.7,47.7,30.19,NE,53,0.0,0.0,58,0.00,,,0.00,WeatherCatV1.00B22,2013-04-27 03:25:00,
2013-04-26 23:30:00,62.6,47.6,30.19,NE,53,0.0,1.0,58,0.00,,,0.00,WeatherCatV1.00B22,2013-04-27 03:30:00,
2013-04-26 23:35:00,62.5,48.4,30.19,NE,53,0.0,0.0,60,0.00,,,0.00,WeatherCatV1.00B22,2013-04-27 03:35:00,
2013-04-26 23:40:00,62.5,48.4,30.19,NE,53,0.0,0.0,60,0.00,,,0.00,WeatherCatV1.00B22,2013-04-27 03:40:00,
2013-04-26 23:45:00,62.4,48.3,30.19,NE,53,0.0,0.0,60,0.00,,,0.00,WeatherCatV1.00B22,2013-04-27 03:45:00,
2013-04-26 23:50:00,62.2,48.6,30.18,NE,53,0.0,0.0,61,0.00,,,0.00,WeatherCatV1.00B22,2013-04-27 03:50:00,
2013-04-26 23:55:00,62.1,51.0,30.17,NE,53,0.0,0.0,67,0.00,,,0.00,WeatherCatV1.00B22,2013-04-27 03:55:00,